Location: Quebec
(46.8000°N, 71.2500°W)
Time: 19:20:28
(UTC-05:00)

Vanguard 1 - Visible Passes

Search period start: 23 February 2018 00:00
Search period end: 05 March 2018 00:00
Orbit: 650 x 3833 km, 34.2° (Epoch: 23 February)

Date Brightness Start Highest point End Pass type
(mag) Time Alt. Az. Time Alt. Az. Time Alt. Az.
24 Feb 12.0 17:52:12 10° WSW 17:57:44 20° SSW 18:01:48 10° SSE visible
25 Feb 12.2 18:13:58 10° WSW 18:18:09 15° SW 18:21:29 10° S visible
26 Feb 12.6 18:36:44 10° SW 18:38:28 11° SW 18:40:03 10° SSW visible
03 Mar 13.0 18:00:54 10° SW 18:01:39 10° SW 18:02:23 10° SW visible
